Regional Weather Roundup
Issued by NWS Charleston, WV

Home | Current Version | Previous Version | Graphics & Text | Print | Product List | Glossary On
Versions: 1 2 3 4 5 6 7 8 9 10 11 12 13 14 15 16 17 18 19 20 21 22 23 24 25 26 27 28 29 30 31 32 33 34 35 36 37 38 39 40 41 42 43 44 45 46 47 48 49 50
611
ASUS41 KRLX 101510
RWRRLX
West Virginia Regional Weather Roundup
National Weather Service Charleston WV
1000 AM EST WED FEB 10 2016

Note: "fair" indicates few or no clouds below 12,000 feet with no
significant weather and/or obstructions to visibility.

WVZ003-101600-
Northern Panhandle of West Virginia

CITY           SKY/WX    TMP DP  RH WIND       PRES   REMARKS
WHEELING       LGT SNOW  17   9  70 SW14G24   29.83R WCI   3
$$

WVZ009-101600-
Northwest West Virginia

CITY           SKY/WX    TMP DP  RH WIND       PRES   REMARKS
PARKERSBURG    LGT SNOW  17  11  77 SW10G23   29.96R WCI   5
$$

WVZ006-101600-
Western West Virginia

CITY           SKY/WX    TMP DP  RH WIND       PRES   REMARKS
HUNTINGTON     LGT SNOW  19  11  70 W10G20    29.99R WCI   7
$$

WVZ015-101600-
West Central West Virginia

CITY           SKY/WX    TMP DP  RH WIND       PRES   REMARKS
CHARLESTON     FLURRIES  19   8  62 W7G20     29.97R WCI  10
$$

WVZ022-031-101600-
North Central West Virginia

CITY           SKY/WX    TMP DP  RH WIND       PRES   REMARKS
CLARKSBURG     CLOUDY    17   8  67 W12G23    29.88R WCI   4
MORGANTOWN     FLURRIES  19   9  65 SW7       29.85R WCI  10
$$

WVZ025-035-042-045-101600-
Southern West Virginia

CITY           SKY/WX    TMP DP  RH WIND       PRES   REMARKS
BECKLEY        LGT SNOW  13   6  74 W8        29.84R WCI   2
LOGAN          LGT SNOW  16  12  86 W9        29.92S WCI   4
BLUEFIELD      LGT SNOW  12   6  77 W10G18    29.81S WCI  -1
LEWISBURG      CLOUDY    19  10  67 NW6       29.83S
$$

WVZ047-101600-
Northern Mountains of West Virginia

CITY           SKY/WX    TMP DP  RH WIND       PRES   REMARKS
ELKINS         LGT SNOW  17   8  67 W13G21    29.82R WCI   4
$$

WVZ052-101600-
Eastern Panhandle of West Virginia

CITY           SKY/WX    TMP DP  RH WIND       PRES   REMARKS
MARTINSBURG    PTSUNNY   29  14  53 W16G25    29.79R
PETERSBURG     CLOUDY    26  12  55 CALM      29.83R
$$




USA.gov is the U.S. government's official web portal to all federal, state and local government web resources and services.